Regional Weather Roundup
Issued by NWS

Home | Current Version | Previous Version | Graphics & Text | Print | Product List | Glossary On
Versions: 1 2 3 4 5 6 7 8 9 10 11 12 13 14 15 16 17 18 19 20 21 22 23 24 25 26 27 28 29 30 31 32 33 34 35 36 37 38 39 40 41 42 43 44 45 46 47 48 49 50
680
ASUS43 KMKX 240721
RWRWI

WISCONSIN REGIONAL WEATHER ROUNDUP
NATIONAL WEATHER SERVICE MILWAUKEE/SULLIVAN WI
200 AM CDT SUN JUL 24 2016

NOTE: "FAIR" INDICATES FEW OR NO CLOUDS BELOW 12,000 FEET WITH NO
SIGNIFICANT WEATHER AND/OR OBSTRUCTIONS TO VISIBILITY.

WIZ001-002-006>008-014>016-023>028-240800-
NORTHWEST WISCONSIN

CITY           SKY/WX    TMP DP  RH WIND       PRES   REMARKS
SUPERIOR ARPT  CLOUDY    62  61  98 NE5       29.78S FOG
ASHLAND        MOCLDY    70  67  90 S5        29.79F
HAYWARD        CLOUDY    69  66  90 SE5       29.80F
SIREN          CLOUDY    72  68  88 S6        29.78F
CUMBERLAND     CLOUDY    68  66  94 SE3       29.81S
RICE LAKE      CLOUDY    69  67  92 CALM      29.82F
CHETEK         CLOUDY    69  68  98 SE5       29.80F
LADYSMITH      CLOUDY    69  67  94 E5        29.84F
EAU CLAIRE     CLOUDY    70  69  97 SE3       29.79F
MENOMONIE      CLOUDY    70  70  99 SE7       29.80F
NEW RICHMOND   CLOUDY    72  71  95 S7        29.77F
OSCEOLA        CLOUDY    73  73 100 SE7       29.79F
$$

WIZ003>005-009-010-017-018-240800-
NORTH CENTRAL WISCONSIN

CITY           SKY/WX    TMP DP  RH WIND       PRES   REMARKS
MANITOWISH WTR CLOUDY    68  68 100 S5        29.85F
ARBOR VITAE    CLOUDY    72  70  95 S5        29.85F
WOODRUFF       CLOUDY    72  70  95 S5        29.85F
RHINELANDER    CLOUDY    70  68  93 S3        29.88F
EAGLE RIVER    CLOUDY    68  68 100 CALM      29.87F
LAND O LAKES   CLOUDY    68  68  99 S5        29.87F
PHILLIPS       CLOUDY    68  67  98 S5        29.84F
TOMAHAWK       CLOUDY    67  66  96 CALM      29.86F
MEDFORD        CLOUDY    67  67 100 SE3       29.85F
MERRILL        CLOUDY    69  69 100 CALM      29.86F
$$

WIZ029-030-035-036-043>047-240800-
CENTRAL WISCONSIN

CITY           SKY/WX    TMP DP  RH WIND       PRES   REMARKS
WAUSAU         CLOUDY    70  68  93 SE7       29.84F
MOSINEE        CLOUDY    68  68 100 SE6       29.86F
MARSHFIELD     CLOUDY    71  68  90 SW3       29.84F
STEVENS POINT  CLOUDY    68  68 100 SE6       29.86S
WAUPACA        RAIN      73  73  99 SE5       29.89R
WAUTOMA        LGT RAIN  71  70  96 SE9       29.85F FOG
WISC RAPIDS    CLOUDY    71  68  90 SE5       29.86F
CAMP DOUGLAS   MOCLDY    72  70  94 SE5       29.84F
$$

WIZ011>013-019>022-031-037>040-048>050-240800-
NORTHEAST WISCONSIN

CITY           SKY/WX    TMP DP  RH WIND       PRES   REMARKS
ANTIGO         CLOUDY    68  68  99 CALM      29.88F
SHAWANO        CLOUDY    73  70  90 SW5       29.87F
OCONTO         CLOUDY   N/A N/A N/A SW6       29.85F
STURGEON BAY   CLOUDY    72  69  90 S12       29.87F
GREEN BAY      TSTM      72  72 100 S13       29.88R
MANITOWOC      RAIN      72  68  87 S10       29.89R
APPLETON       TSTM      72  70  94 SE7       29.86F
CLINTONVILLE   LGT RAIN  70  70 100 S6        29.86F
OSHKOSH        LGT RAIN  72  69  90 S10       29.85F FOG
$$

WIZ032>034-041-042-053>061-240800-
SOUTHWEST WISCONSIN

CITY           SKY/WX    TMP DP  RH WIND       PRES   REMARKS
LA CROSSE      MOCLDY    75  71  87 S8        29.81F
SPARTA         CLOUDY    71  69  92 S3        29.84F
VIROQUA        MOCLDY    71  71 100 S8        29.86F
BOSCOBEL       CLOUDY    75  71  87 S6        29.84F
PRAIRIE DU CHI CLOUDY    74  71  92 CALM      29.83F
PLATTEVILLE    CLEAR     72  72 100 S6        29.88F
$$

WIZ056-057-062-063-064-067-068-240800-
SOUTH CENTRAL WISCONSIN

CITY           SKY/WX    TMP DP  RH WIND       PRES   REMARKS
REEDSBURG      CLOUDY    71  71  99 S5        29.86F
BARABOO/DELLS  CLOUDY    71  68  90 S9        29.87S
LONE ROCK      CLOUDY    72  70  93 E5        29.86F
MINERAL POINT  CLEAR     72  72 100 SE10      29.88F
MADISON        MOCLDY    72  69  90 S9        29.88S
MIDDLETON      MOCLDY    72  71  96 S7        29.88F
WATERTOWN      CLOUDY    70  70 100 S8        29.89S
MONROE         CLOUDY    70  70 100 S13G18    29.89F
JANESVILLE     CLOUDY    70  70 100 S8        29.89F
$$

WIZ051-052-058>065-066-070>072-240800-
SOUTHEAST WISCONSIN

CITY           SKY/WX    TMP DP  RH WIND       PRES   REMARKS
MILWAUKEE      CLOUDY    73  68  84 S9        29.90F
WAUKESHA       CLOUDY    68  68 100 S8        29.92S
MILWAUKEE/TIMM CLOUDY    70  64  83 S8        29.91S
RACINE         CLOUDY    72  68  87 S10G18    29.93S
BURLINGTON     CLOUDY    70  69  96 S7        29.92S
KENOSHA        MOCLDY    72  69  90 S9        29.92F
FOND DU LAC    CLOUDY    73  69  87 S14G22    29.86F THUNDER
SHEBOYGAN      CLOUDY    72  68  87 S14       29.88F
WEST BEND      LGT RAIN  70  68  94 SE5       29.90F
JUNEAU         CLOUDY    70  68  93 S10       29.89F
$$

LSZ147-162-240800-
LAKE SUPERIOR

STATION/POSITION TIME  TEMP    WIND        PRES    WAVE
                       AIR SEA DIR/SP/G            HT/PER
                 (UTC) (F)     (DEG/KT/KT) (MB)    (FT/S)
W MID LAKE BUOY  0650   62 57  170/  4/  6 1008.0F   1/ 4
DEVILS ISLAND    0700   65     110/  2/  3 1007.9F
PORT WING        0640   63      CALM  /  1 1008.1F
SAXON HARBOR     0700   73     190/  4/ 11 1008.1F
$$

LMZ867-665-643>646-240800-
LAKE MICHIGAN

STATION/POSITION TIME  TEMP    WIND        PRES    WAVE
                       AIR SEA DIR/SP/G            HT/PER
                 (UTC) (F)     (DEG/KT/KT) (MB)    (FT/S)
CHAMBERS ISLAND  0600   71     120/  3/  4 1011.5F
S GREEN BAY BUOY 0600   75 75  190/  8/ 10   N/A
N MID LAKE BUOY  0650   71 69   CALM  /  2 1011.0F   0
NORTHPORT PIER   0600   70     120/  3/  4 1011.9F
KEWAUNEE LAKESHO 0600   62     180/ 12/ 14 1011.6F
SHEBOYGAN LAKESH 0700   73     200/ 19/ 22 1011.2F
PORT WASHINGTON  0600   66     180/  4/  7 1013.9R
MILWAUKEE LAKESH 0620   67     170/ 13/ 14   N/A
S MID LAKE BUOY  0650   72 72  180/ 12/ 16 1012.8F   1/ 3
KENOSHA   LAKESH 0700   70     190/ 11/ 18 1012.9F
$$

TC  - TEMPERATURE IN CELSIUS
VSB - VISIBILITY IN STATUTE MILES
WCI - WIND CHILL INDEX
HX  - HEAT INDEX





USA.gov is the U.S. government's official web portal to all federal, state and local government web resources and services.